Location: Mainz-Finthen
(49.9906°N, 8.1713°E)
Time: 06:52:15
(UTC+00:00)

N. Korean satellite - Pass Details

Date: 05 December 2022
Orbit: 407 x 442 km, 97.3° (Epoch: 04 February)

Event Time Altitude Azimuth Distance (km) Brightness Sun altitude
Rises 16:27:42 0° 191° (S) 2,457 10.7 -9.4°
Reaches altitude 10° 16:29:54 10° 203° (SSW) 1,599 9.9 -9.7°
Maximum altitude 16:32:55 28° 264° (W) 895 8.8 -10.1°
Drops below altitude 10° 16:36:00 10° 326° (NW) 1,633 9.4 -10.6°
Sets 16:38:17 0° 338° (NNW) 2,520 10.2 -10.9°
